Dewpoint
56 57 58 59 59 59 59 58 59 60 62 62 63 63 63 63 63 63 63 63 64 64 65 64 63 63 65 65 65 64 61 56 54 54 54 58 56 60 61 61 63 63 59 40 38 38 38 40 43 45 43 42 42 41 43 42 43 42 38 35 33 33 33 35 30 30 33 26 26 27 29 33 33 34 37 41 40 43 43 45 47 50 53 51 52 54 56 57
55 56 57 59 59 59 59 59 59 58 60 62 62 63 63 63 62 63 63 63 63 64 65 65 64 64 64 65 64 62 55 54 54 52 56 59 61 61 63 66 65 64 53 41 38 38 40 42 44 44 41 41 45 41 42 41 43 39 39 36 34 35 34 33 31 30 26 28 26 27 32 33 33 34 35 38 37 40 40 40 45 48 49 51 55 56 57 58
55 55 57 58 59 59 59 58 59 59 60 61 62 63 63 63 62 62 62 63 63 64 65 64 64 64 64 64 63 58 54 52 52 52 54 60 65 63 62 66 66 63 43 43 41 40 41 41 41 42 42 39 39 39 40 39 41 40 37 34 34 37 35 34 28 29 28 27 26 25 25 33 33 35 35 37 37 40 38 37 39 43 45 47 53 56 56 57
55 55 56 58 58 59 59 59 59 59 59 60 62 62 63 62 62 62 62 63 62 63 64 63 63 63 63 63 60 56 56 54 53 55 56 61 62 63 63 66 65 56 48 43 43 45 46 45 45 43 41 39 40 41 40 39 40 39 36 34 35 35 35 33 29 26 28 25 25 25 28 32 28 34 36 35 35 36 38 39 35 36 41 48 51 56 56 57
55 55 55 58 59 59 59 59 59 59 59 59 61 62 62 62 62 62 62 63 62 62 64 64 63 63 63 61 59 59 57 52 53 57 57 61 63 63 64 66 62 52 51 49 47 46 45 45 45 45 43 38 40 37 34 37 39 40 36 37 37 35 35 33 28 25 25 26 25 27 29 30 27 31 34 35 33 32 35 37 39 37 39 49 54 55 56 56
54 55 55 56 57 58 59 59 59 58 59 59 60 61 62 62 62 62 62 63 63 62 63 63 63 62 61 60 58 58 56 43 53 52 60 62 62 65 65 65 60 52 50 50 47 47 43 44 42 41 39 38 36 37 36 35 41 37 37 36 37 35 34 30 27 26 24 24 24 25 28 27 28 27 31 35 34 34 36 38 39 39 40 48 55 56 55 55
54 54 55 56 57 58 58 59 59 59 59 59 59 61 62 62 62 62 62 62 62 62 63 63 62 62 60 60 59 57 54 53 53 54 62 63 63 64 64 64 58 51 51 49 45 42 45 43 42 41 40 39 38 37 39 38 39 37 35 34 36 35 33 31 32 29 27 23 23 24 31 27 26 27 30 34 34 34 33 29 28 33 42 55 55 56 56 55
54 54 55 56 57 58 58 59 58 58 59 59 59 61 61 62 62 62 62 62 62 62 63 63 62 61 60 58 56 53 52 52 55 57 61 63 62 63 59 53 52 51 50 47 45 43 44 41 41 44 41 40 40 35 38 36 37 35 35 35 36 33 32 32 32 32 30 27 32 32 28 28 26 27 26 27 29 30 31 40 42 40 53 54 54 56 56 56
54 54 55 56 56 57 58 58 58 58 58 58 58 58 62 62 62 62 62 62 62 62 63 62 61 60 60 57 55 51 50 57 58 60 60 61 60 57 52 51 51 48 48 49 49 47 43 43 49 45 42 42 42 35 38 35 35 36 35 36 34 33 33 33 33 35 38 37 33 30 29 31 34 34 31 27 28 29 31 38 52 52 53 54 54 55 55 56
53 55 55 55 56 57 58 58 58 58 58 59 59 58 61 62 62 62 62 62 62 62 62 62 61 60 58 55 53 48 53 59 60 60 61 59 56 55 53 51 50 49 48 49 49 47 46 47 45 51 48 47 42 39 41 38 40 37 36 36 34 35 34 35 32 32 37 39 36 30 31 33 35 32 28 31 32 34 34 36 50 52 52 53 54 55 56 56
53 54 55 55 56 57 58 58 58 58 58 59 59 58 60 61 62 62 62 62 62 62 62 61 61 59 56 55 51 48 56 59 60 60 59 58 55 54 52 51 49 47 48 49 48 48 48 50 52 50 50 51 44 43 39 37 39 36 35 35 35 37 37 36 35 34 37 33 35 32 33 34 36 35 29 30 33 32 32 32 39 51 51 52 54 55 56 55
51 53 55 55 56 56 57 58 58 57 58 58 58 57 58 60 61 62 61 61 62 62 62 61 60 58 56 53 51 49 55 58 60 60 59 58 56 53 54 53 50 48 48 47 48 49 50 52 50 49 47 49 47 45 46 43 39 37 38 40 39 37 34 35 34 34 34 31 37 36 32 31 33 32 34 32 31 30 30 29 35 44 48 51 52 54 55 55
51 52 54 56 56 56 58 57 58 58 57 58 58 58 59 59 60 61 61 61 62 62 61 61 60 58 55 50 52 53 54 60 59 59 58 58 56 56 55 56 54 51 48 47 47 52 51 51 50 47 48 46 45 45 46 43 38 38 39 39 39 38 39 38 37 38 33 33 38 35 32 33 32 32 34 34 34 33 33 32 31 36 41 44 49 52 54 56
52 53 55 56 56 57 57 57 58 57 58 58 58 58 58 59 59 61 61 60 61 61 60 61 59 57 54 50 54 56 56 59 58 57 57 58 55 54 53 56 57 55 54 51 52 53 52 51 49 49 49 45 43 48 41 41 40 39 39 40 39 40 40 37 35 37 33 36 36 34 34 35 36 34 33 34 34 34 33 33 33 32 33 36 42 49 51 53
51 53 55 55 56 56 56 57 57 58 57 57 58 58 58 58 59 60 61 61 61 60 60 61 59 55 51 51 55 56 61 58 56 56 58 56 54 53 54 55 55 56 56 55 55 55 53 51 49 47 46 47 44 41 40 41 40 36 39 38 37 40 41 38 38 35 34 35 35 33 32 33 35 34 34 35 34 34 33 33 33 33 33 33 33 38 43 47
50 53 54 55 56 56 56 57 57 57 58 57 58 58 58 58 59 61 60 61 60 60 58 53 53 54 50 48 52 60 57 54 54 57 58 56 54 53 54 54 55 55 57 56 55 56 54 50 47 47 46 45 43 41 40 40 39 38 39 35 37 38 39 39 37 37 36 36 38 33 34 34 36 37 35 33 36 34 33 33 33 33 33 34 33 33 34 37
50 52 54 55 55 56 56 56 56 56 57 57 57 57 56 58 59 60 59 60 58 58 55 51 51 52 46 50 56 54 53 53 56 56 56 57 55 55 54 53 52 54 55 55 54 54 53 49 50 46 47 44 43 41 39 39 39 37 38 38 37 37 37 39 39 38 39 36 34 35 34 35 38 34 35 37 37 35 35 34 35 35 35 35 35 34 33 33
49 53 54 55 55 55 56 56 56 57 57 57 56 57 57 59 60 57 56 55 54 53 53 53 51 48 46 49 47 51 55 54 55 55 55 57 55 55 54 53 53 53 52 50 52 52 52 48 49 44 44 43 42 41 39 37 39 38 37 37 37 35 38 38 38 40 37 37 35 35 34 34 35 36 37 38 33 35 35 35 35 35 35 35 35 34 34 34
49 52 54 54 55 55 56 56 56 57 56 57 57 57 58 56 53 53 51 50 48 45 45 45 46 39 37 45 49 53 54 55 55 54 54 55 55 55 55 55 52 50 48 49 49 51 50 47 47 44 42 42 41 41 40 41 41 39 37 37 37 36 35 36 37 38 37 35 35 35 35 34 35 35 36 37 37 36 36 36 36 36 35 34 33 34 34 35
50 51 53 54 54 55 56 56 56 56 57 56 56 53 51 48 47 44 47 49 45 45 48 46 47 45 45 46 49 52 55 55 53 54 54 54 53 53 52 51 50 50 47 44 47 49 49 44 41 41 41 42 42 42 41 42 41 39 38 38 37 37 36 36 36 37 38 36 35 35 35 35 35 36 36 36 36 36 35 35 36 36 36 36 36 35 36 36
51 52 54 54 54 55 56 56 56 56 57 55 51 49 43 44 41 38 43 46 46 44 46 47 46 44 44 47 52 54 51 51 54 53 53 55 52 50 48 48 47 44 46 47 45 50 49 43 41 41 42 42 43 43 43 40 39 38 38 37 37 37 37 37 36 36 37 36 36 35 35 35 35 35 35 35 35 35 35 35 35 36 36 36 37 37 38 37
50 52 53 53 55 55 56 55 56 57 56 53 52 48 46 46 47 44 46 42 45 44 46 46 46 46 48 51 52 51 51 49 51 52 54 54 50 45 47 47 44 42 46 46 45 43 42 41 43 44 45 44 44 44 43 43 41 40 38 37 36 36 36 37 38 37 35 37 36 36 35 36 36 37 37 37 36 37 37 37 37 37 38 38 38 38 38 39
51 51 53 53 54 54 56 56 56 57 55 51 49 47 46 48 47 47 46 44 43 45 45 45 45 46 48 50 50 48 47 47 46 51 52 53 49 46 48 45 43 44 45 44 41 40 37 39 41 42 43 45 44 44 43 42 41 41 40 38 36 37 37 35 37 36 35 36 35 33 32 33 34 35 35 36 37 38 38 38 38 39 38 38 38 39 39 39
51 51 52 53 54 54 56 56 57 55 52 50 48 47 49 48 45 43 40 38 38 45 46 45 45 47 48 48 50 48 47 46 48 47 53 51 47 48 47 44 41 43 42 43 41 40 38 44 46 42 44 46 44 44 43 43 42 42 41 40 39 37 38 38 38 33 34 34 33 33 34 35 37 37 38 39 37 36 37 37 38 39 40 40 41 41 40 39
52 52 53 53 53 54 54 56 53 51 51 50 47 48 49 48 44 42 38 37 38 40 45 45 45 45 48 46 46 48 44 44 47 50 52 50 47 47 45 45 41 39 41 42 41 41 40 44 47 46 45 45 44 43 44 43 42 42 42 40 39 38 38 38 36 37 34 34 35 34 33 33 37 37 37 38 37 36 36 36 36 37 37 38 37 38 38 40
52 53 53 53 53 55 56 51 50 52 50 47 47 49 50 44 41 38 32 27 28 35 41 37 46 42 48 45 45 44 46 44 47 51 52 51 51 46 45 44 42 38 41 41 41 40 40 43 44 44 44 44 44 44 44 44 41 41 41 41 39 38 38 37 36 38 34 35 35 34 33 31 34 35 36 36 36 36 37 37 37 37 37 37 37 38 38 38
52 53 53 52 53 56 51 46 52 50 46 45 49 50 48 41 36 32 28 20 23 34 35 42 41 40 44 44 45 45 37 40 50 52 50 51 48 50 42 43 44 43 43 43 39 37 41 41 41 41 40 41 42 42 44 43 41 39 41 41 40 38 38 38 38 39 37 36 36 32 33 32 32 34 35 35 34 34 35 35 35 36 36 36 37 37 38 38
52 53 53 53 54 55 51 51 49 47 46 47 50 50 47 41 34 31 25 17 14 37 34 39 39 44 44 46 46 39 38 48 44 47 51 49 49 46 44 43 40 41 41 40 32 42 39 39 39 39 40 41 40 43 45 44 42 41 41 41 40 39 39 37 38 35 34 35 35 32 31 33 33 34 34 34 34 34 34 35 35 36 36 36 36 37 37 37
51 51 52 53 53 55 52 50 48 46 48 49 50 49 45 43 44 26 19 13 28 30 38 37 46 44 43 44 41 39 40 41 40 48 51 50 49 47 42 43 41 41 41 38 34 38 40 40 40 40 40 39 40 44 45 46 43 42 41 40 39 39 38 39 36 36 34 35 33 36 34 32 32 35 34 32 34 34 34 34 35 35 36 36 37 37 38 37
52 51 52 52 54 53 50 50 48 48 49 50 49 47 43 37 28 22 16 10 27 21 34 38 40 38 43 40 40 39 40 40 43 49 49 47 47 47 44 46 43 42 41 41 39 39 40 44 42 40 40 40 41 44 45 46 42 43 43 40 38 36 35 33 34 33 33 32 34 36 34 34 31 32 33 33 34 33 34 34 34 35 36 36 36 37 37 37
51 52 53 53 50 49 49 46 47 49 50 49 48 47 42 37 24 19 13 14 30 33 39 36 35 43 40 39 37 38 37 40 44 47 43 45 45 46 44 43 43 41 40 40 39 41 42 42 41 42 43 44 43 42 43 46 43 44 40 39 40 36 36 35 34 34 32 30 33 34 35 34 30 32 33 33 34 33 33 33 33 34 34 35 36 36 36 36
51 52 54 53 50 51 47 44 48 50 49 48 46 42 35 24 24 17 14 26 20 31 34 34 39 40 40 39 38 39 37 39 42 44 41 42 40 41 42 37 40 32 33 35 34 39 38 40 41 42 43 42 42 42 42 44 43 43 41 41 36 32 34 29 33 29 31 30 32 33 34 33 33 32 32 33 33 34 34 34 34 34 34 34 35 36 36 37
52 53 54 52 50 49 48 48 50 50 49 47 42 38 29 23 16 21 18 21 13 33 32 36 37 39 39 37 36 36 35 36 40 43 43 42 41 42 43 39 40 35 31 36 35 35 36 41 41 42 42 43 43 38 38 38 41 41 39 37 33 30 29 27 30 31 31 32 34 32 33 32 34 34 35 35 35 35 35 35 36 35 35 35 35 36 36 38
53 54 52 50 49 48 49 49 50 48 47 45 39 33 28 20 18 25 19 14 19 32 35 34 39 39 38 34 36 37 35 35 41 41 42 39 40 38 40 40 40 35 33 37 34 34 31 31 38 41 37 44 41 37 40 40 41 41 39 37 34 31 29 26 28 27 28 29 29 33 31 29 30 30 32 34 35 36 36 36 37 37 37 37 37 37 37 37
53 52 49 49 48 49 49 49 49 48 46 42 34 28 21 19 24 19 13 14 25 33 32 38 36 37 35 35 36 37 36 35 41 41 39 38 36 38 38 39 41 37 33 34 34 34 33 33 39 42 41 44 41 40 42 42 40 42 40 39 35 32 34 29 29 30 29 28 24 25 29 31 30 31 33 33 32 33 33 34 34 34 34 36 36 37 37 37
52 48 49 47 47 48 49 49 48 48 45 37 31 26 21 23 21 22 18 28 30 31 34 37 37 33 33 32 35 36 36 35 38 39 38 38 38 38 40 40 40 39 35 33 35 31 34 32 38 41 43 42 41 41 41 41 33 39 41 35 36 39 37 32 31 30 30 28 28 26 29 31 32 31 32 32 33 33 33 34 34 34 34 35 35 36 36 36
47 47 44 45 46 48 49 48 48 46 40 35 28 24 26 21 23 23 31 29 30 34 35 29 31 32 30 29 33 35 35 37 37 38 33 38 36 38 38 38 40 40 38 35 34 33 32 30 38 39 39 43 42 42 41 40 41 40 36 39 40 41 38 34 28 28 29 28 28 30 29 29 28 27 26 26 30 30 32 32 33 33 34 33 34 34 35 35
46 45 45 44 47 49 48 48 47 45 37 31 26 28 25 19 24 25 31 33 34 34 33 31 33 34 30 32 31 34 35 33 33 35 30 37 32 39 37 36 39 40 40 36 34 32 34 27 30 39 40 40 41 41 41 42 39 40 38 42 37 31 32 32 31 25 24 26 25 27 29 29 29 28 29 29 28 29 30 31 32 32 32 33 32 33 33 33
45 43 39 44 49 49 47 48 46 41 36 28 25 25 26 24 27 31 30 33 33 33 30 31 30 32 32 31 33 35 34 29 35 33 32 33 28 34 37 37 37 41 41 38 35 34 32 25 27 32 37 39 40 40 33 39 41 40 41 40 38 35 32 33 32 31 29 24 20 23 27 26 30 30 30 29 29 30 30 31 31 31 31 31 32 33 33 34
42 38 37 46 49 49 48 46 41 38 32 25 25 21 26 24 27 31 35 34 32 30 27 29 29 30 31 30 33 32 33 30 34 33 29 32 30 33 36 36 34 38 40 40 36 36 32 31 22 31 37 39 33 38 36 37 36 37 38 37 35 34 36 35 33 32 29 25 23 19 21 23 26 29 29 29 29 29 29 29 31 31 31 31 32 33 33 33
42 38 38 47 47 48 46 42 36 31 29 29 28 25 21 23 29 31 30 32 31 30 27 28 30 29 30 30 31 33 31 30 34 32 29 30 30 25 32 36 36 38 39 39 38 36 32 31 28 33 34 35 37 39 38 38 39 38 37 37 36 35 33 30 28 32 30 27 23 22 21 23 23 27 28 28 28 28 30 30 30 30 30 30 31 31 31 32
38 32 36 47 47 45 41 33 32 34 30 26 25 24 24 34 30 30 30 30 29 28 29 29 27 29 29 28 30 32 30 30 32 31 28 29 31 27 29 36 35 38 40 37 38 39 35 32 32 32 33 36 37 37 38 38 39 39 38 36 38 36 35 31 26 30 30 31 28 24 23 25 26 27 27 27 27 27 28 30 29 30 30 29 30 30 31 31
35 34 44 46 47 42 38 31 33 31 28 27 31 29 29 29 29 29 29 29 27 27 26 26 27 28 28 28 29 30 30 28 31 30 29 28 28 29 29 35 36 38 38 35 39 39 38 32 32 32 32 33 36 36 37 36 38 38 38 38 37 37 36 33 30 31 32 30 30 28 27 28 29 29 28 28 28 28 27 28 29 28 28 29 29 30 30 30
38 38 40 46 46 43 35 27 27 27 29 30 29 30 30 28 30 28 27 28 28 26 26 27 26 29 28 28 31 30 31 26 28 29 28 28 27 30 33 35 38 37 35 36 34 39 34 30 32 26 24 27 30 31 33 32 34 34 36 38 38 38 38 37 34 28 31 32 31 29 26 29 31 31 32 30 29 29 28 28 28 28 28 29 29 29 30 30
35 37 39 42 45 42 30 31 28 27 29 27 29 27 27 29 30 28 28 28 26 26 27 28 28 29 30 30 29 29 31 28 24 29 28 27 29 29 31 35 36 37 35 35 37 38 31 28 32 26 22 21 20 22 26 29 32 34 34 36 38 38 37 36 33 33 29 31 32 30 29 30 30 30 29 29 29 29 29 30 30 30 30 29 30 31 31 32
33 28 32 35 39 38 36 36 32 28 27 26 26 26 26 27 29 30 30 28 27 27 26 29 30 31 29 30 28 28 29 27 27 25 29 28 28 29 31 35 36 36 37 39 38 36 25 30 32 28 25 22 21 22 26 29 29 28 30 34 35 37 38 38 36 33 31 32 31 32 32 31 31 31 31 31 29 29 29 29 28 30 30 31 31 31 32 32
36 30 31 28 33 33 33 34 32 29 26 27 24 26 24 27 29 28 30 25 28 26 28 27 29 28 27 28 27 28 29 27 26 27 29 28 28 29 32 33 34 36 38 37 38 33 26 29 31 30 28 25 24 24 26 29 27 29 31 32 34 34 36 37 34 32 35 33 30 33 34 32 32 32 32 32 31 30 29 29 29 29 30 31 31 31 33 31
30 30 33 35 30 28 30 30 32 28 27 25 26 27 27 28 26 24 29 29 28 28 27 28 27 28 30 28 28 24 25 24 26 24 27 28 28 31 30 32 33 36 37 34 36 34 30 29 30 30 30 30 29 26 24 29 29 29 31 31 31 34 34 34 35 35 36 33 30 34 35 33 33 33 33 33 33 31 31 30 29 29 30 30 30 30 30 30
34 33 33 35 32 32 32 32 31 29 26 26 28 28 28 26 25 27 24 27 28 28 26 24 29 29 29 29 27 23 27 24 24 26 26 27 27 28 28 30 32 33 35 33 32 30 31 30 28 29 29 30 31 31 31 26 27 28 30 31 31 32 34 35 35 36 36 35 35 35 35 34 34 34 34 34 34 34 33 32 30 29 29 30 30 29 29 29
31 32 31 34 34 33 33 32 31 30 26 29 25 26 28 27 26 28 28 26 25 26 27 24 27 27 29 28 27 26 28 27 26 25 26 27 24 26 28 27 29 32 34 32 33 31 34 31 33 29 26 28 29 30 30 30 30 29 29 30 32 32 33 34 35 35 36 36 36 36 35 35 35 36 35 35 32 31 30 29 29 29 30 29 29 29 29 29
34 34 36 34 31 32 33 32 30 29 27 26 24 25 26 27 27 29 28 28 26 26 27 25 28 27 27 28 27 26 29 28 28 28 29 28 25 29 27 25 32 32 32 31 32 32 34 30 31 29 27 28 29 29 29 30 30 30 29 30 30 31 31 33 34 35 34 33 34 35 35 34 36 36 36 36 36 36 35 35 31 30 29 29 29 30 30 30
36 35 37 36 31 34 31 32 31 30 26 28 26 26 24 26 26 28 26 28 28 28 29 29 30 30 27 27 28 29 28 29 32 32 33 30 31 28 26 27 34 34 32 32 31 31 31 27 26 28 28 28 29 29 29 27 24 26 28 30 31 31 31 32 33 35 35 35 34 33 33 35 36 36 36 36 36 35 35 35 33 32 31 31 31 31 31 31